"startDT [UTC]","vpos","CH4 [ppm]","stdev(CH4) [ppm]","CO2 [ppm]","stdev(CO2) [ppm]","H2O [ppm]","stdev(H2O)","p_LGR [torr]","T_LGR [C]","mt1_LGR [us]","mt2_LGR [us]","T_ECpre [C]","T_EC1 [C]","T_EC2 [C]","p_inlet [hPa]","p_in [hPa]","p_out [hPa]","T_inlet [C]","RH_inlet [%]","dwpt_inlet [C]","T_vent [C]","RH_vent [%]","dwpt_vent [C]","flow_vent [l min-1]","flow_inlet [l min-1]","dwpt_sample [C]","T_room [C]"
2012-10-13 00:00:00,0.0,1.9052,0.0010,397.36,0.32,257.0,32.8,138.13,28.02,24.63,36.33,0.04,-272.74,-272.75,-41,566,-944,22.3,13.5,-7.0,22.6,13.6,-6.7,5.73,2.43,-22.8,27.7
2012-10-13 00:01:00,0.0,1.9054,0.0009,397.55,0.33,255.7,37.1,138.13,28.02,24.63,36.32,0.04,-272.74,-272.75,-41,567,-943,22.3,13.5,-7.0,22.6,13.5,-6.7,5.73,2.43,-22.8,27.7
2012-10-13 00:02:00,0.0,1.9048,0.0010,397.39,0.31,253.6,32.9,138.13,28.02,24.63,36.33,0.04,-272.75,-272.74,-41,566,-944,22.3,13.4,-7.1,22.6,13.5,-6.7,5.73,2.44,-22.8,27.7
2012-10-13 00:03:00,0.0,1.9046,0.0009,397.31,0.31,263.0,33.0,138.13,28.01,24.63,36.32,0.04,-272.74,-272.74,-41,567,-944,22.3,13.4,-7.1,22.6,13.4,-6.8,5.73,2.44,-22.8,27.7
2012-10-13 00:04:00,0.0,1.9048,0.0010,397.31,0.33,252.0,34.1,138.13,28.01,24.63,36.32,0.04,-272.74,-272.75,-41,566,-944,22.3,13.3,-7.2,22.6,13.4,-6.8,5.73,2.45,-22.8,27.7
2012-10-13 00:05:00,0.0,1.9046,0.0010,397.35,0.29,259.7,32.6,138.13,28.01,24.63,36.33,0.04,-272.74,-272.75,-41,567,-943,22.3,13.3,-7.2,22.6,13.4,-6.9,5.73,2.46,-22.8,27.7
2012-10-13 00:06:00,0.0,1.9042,0.0010,397.35,0.29,250.4,31.9,138.13,28.01,24.63,36.32,0.04,-272.74,-272.74,-41,566,-944,22.3,13.3,-7.2,22.6,13.3,-6.9,5.73,2.46,-22.8,27.7
2012-10-13 00:07:00,0.0,1.9048,0.0010,397.23,0.39,256.4,32.7,138.13,28.01,24.63,36.33,0.04,-272.75,-272.74,-41,566,-944,22.3,13.2,-7.3,22.6,13.3,-7.0,5.73,2.46,-22.8,27.7
2012-10-13 00:08:00,0.0,1.9052,0.0010,397.39,0.34,260.2,36.4,138.13,28.01,24.63,36.32,0.04,-272.75,-272.75,-41,567,-944,22.3,13.1,-7.4,22.6,13.2,-7.1,5.73,2.46,-22.8,27.7
2012-10-13 00:09:00,0.0,1.9050,0.0010,397.36,0.32,251.8,36.3,138.13,28.01,24.63,36.32,0.04,-272.75,-272.74,-41,566,-944,22.3,13.1,-7.4,22.6,13.1,-7.1,5.73,2.46,-22.8,27.7
2012-10-13 00:10:00,0.0,1.9049,0.0009,397.37,0.28,247.3,40.3,138.13,28.01,24.63,36.33,0.04,-272.74,-272.74,-41,566,-943,22.3,13.0,-7.5,22.6,13.1,-7.2,5.73,2.45,-22.8,27.7
2012-10-13 00:11:00,0.0,1.9055,0.0008,397.47,0.30,257.6,36.3,138.13,28.00,24.62,36.33,0.04,-272.74,-272.74,-41,566,-944,22.3,13.0,-7.5,22.6,13.0,-7.2,5.73,2.45,-22.8,27.7
2012-10-13 00:12:00,0.0,1.9052,0.0011,397.28,0.29,262.4,31.2,138.13,28.00,24.63,36.33,0.04,-272.74,-272.75,-41,566,-944,22.3,12.9,-7.6,22.6,12.9,-7.3,5.73,2.44,-22.8,27.7
2012-10-13 00:13:00,0.0,1.9048,0.0009,397.43,0.29,258.7,36.7,138.13,28.00,24.63,36.33,0.04,-272.74,-272.74,-41,567,-944,22.2,12.8,-7.7,22.6,12.9,-7.4,5.73,2.44,-22.8,27.6
2012-10-13 00:14:00,0.0,1.9052,0.0009,397.53,0.31,252.2,39.3,138.13,28.00,24.63,36.32,0.04,-272.74,-272.75,-41,567,-943,22.3,12.8,-7.7,22.6,12.8,-7.4,5.73,2.43,-22.8,27.6
2012-10-13 00:15:00,0.0,1.9055,0.0009,397.44,0.27,253.7,34.1,138.13,28.00,24.63,36.33,0.04,-272.74,-272.75,-41,566,-943,22.3,12.7,-7.8,22.6,12.7,-7.5,5.73,2.43,-22.8,27.6
2012-10-13 00:16:00,0.0,1.9057,0.0011,397.44,0.34,255.9,34.4,138.13,28.00,24.63,36.33,0.04,-272.74,-272.75,-41,566,-943,22.3,12.7,-7.8,22.6,12.7,-7.5,5.73,2.43,-22.8,27.7
2012-10-13 00:17:00,0.0,1.9057,0.0009,397.54,0.31,254.3,35.3,138.13,28.00,24.63,36.32,0.04,-272.74,-272.75,-41,566,-944,22.3,12.6,-7.9,22.6,12.7,-7.6,5.73,2.43,-22.8,27.7
2012-10-13 00:18:00,0.0,1.9058,0.0009,397.48,0.26,259.8,36.3,138.13,28.00,24.63,36.32,0.04,-272.74,-272.75,-41,566,-943,22.3,12.6,-7.9,22.6,12.6,-7.6,5.73,2.43,-22.8,27.7
2012-10-13 00:19:00,0.0,1.9055,0.0010,397.43,0.35,255.4,33.5,138.13,28.00,24.63,36.32,0.04,-272.75,-272.74,-41,566,-943,22.3,12.5,-8.0,22.6,12.6,-7.7,5.73,2.44,-22.8,27.7
2012-10-13 00:20:00,0.0,1.9054,0.0011,397.45,0.34,255.3,32.0,138.13,28.00,24.63,36.33,0.04,-272.74,-272.75,-41,566,-943,22.3,12.5,-8.0,22.6,12.5,-7.7,5.73,2.44,-22.8,27.7
2012-10-13 00:21:00,0.0,1.9061,0.0009,397.43,0.29,250.5,26.2,138.13,28.00,24.63,36.32,0.04,-272.74,-272.75,-41,566,-943,22.3,12.5,-8.0,22.6,12.5,-7.7,5.73,2.45,-22.8,27.7
2012-10-13 00:22:00,0.0,1.9059,0.0010,397.41,0.30,263.1,37.0,138.13,28.00,24.63,36.33,0.04,-272.75,-272.75,-41,566,-944,22.3,12.5,-8.0,22.5,12.5,-7.8,5.73,2.45,-22.8,27.7
2012-10-13 00:23:00,0.0,1.9066,0.0009,397.46,0.29,254.8,39.5,138.13,28.00,24.63,36.33,0.04,-272.74,-272.74,-40,566,-944,22.3,12.4,-8.0,22.5,12.5,-7.8,5.73,2.46,-22.8,27.7
2012-10-13 00:24:00,0.0,1.9065,0.0009,397.56,0.29,263.5,34.1,138.13,28.00,24.63,36.32,0.04,-272.74,-272.74,-41,566,-943,22.2,12.4,-8.1,22.5,12.5,-7.8,5.73,2.46,-22.8,27.8
2012-10-13 00:25:00,0.0,1.9070,0.0010,397.40,0.25,251.3,42.8,138.13,28.00,24.63,36.34,0.04,-272.75,-272.75,-41,566,-943,22.2,12.4,-8.1,22.5,12.5,-7.8,5.73,2.46,-22.8,27.7
2012-10-13 00:26:00,0.0,1.9078,0.0009,397.39,0.30,256.4,34.5,138.13,28.00,24.63,36.33,0.04,-272.74,-272.74,-41,566,-944,22.3,12.4,-8.0,22.5,12.5,-7.8,5.73,2.46,-22.8,27.7
2012-10-13 00:27:00,0.0,1.9084,0.0008,397.54,0.28,260.8,36.5,138.13,28.00,24.63,36.33,0.04,-272.74,-272.74,-41,566,-943,22.3,12.4,-8.0,22.5,12.5,-7.8,5.73,2.46,-22.8,27.7
2012-10-13 00:28:00,0.0,1.9082,0.0010,397.35,0.29,260.1,40.1,138.13,28.00,24.63,36.33,0.04,-272.75,-272.75,-41,566,-943,22.2,12.5,-8.1,22.5,12.5,-7.8,5.73,2.45,-22.8,27.7
2012-10-13 00:29:00,0.0,1.9076,0.0008,397.30,0.31,257.4,35.0,138.13,28.00,24.63,36.33,0.04,-272.75,-272.74,-41,566,-943,22.3,12.4,-8.1,22.5,12.5,-7.8,5.73,2.45,-22.8,27.7
2012-10-13 00:30:00,0.0,1.9084,0.0009,397.60,0.27,258.7,38.6,138.13,28.00,24.63,36.32,0.04,-272.74,-272.75,-41,566,-943,22.3,12.4,-8.1,22.5,12.5,-7.8,5.73,2.44,-22.8,27.7
2012-10-13 00:31:00,0.0,1.9083,0.0010,397.59,0.29,264.3,32.9,138.13,28.00,24.63,36.31,0.04,-272.74,-272.74,-41,566,-943,22.3,12.4,-8.1,22.5,12.5,-7.8,5.73,2.43,-22.8,27.6
2012-10-13 00:32:00,0.0,1.9081,0.0009,397.58,0.32,266.9,35.0,138.13,27.99,24.63,36.32,0.04,-272.74,-272.75,-40,566,-944,22.3,12.4,-8.1,22.6,12.4,-7.8,5.73,2.43,-22.8,27.7
2012-10-13 00:33:00,0.0,1.9078,0.0009,397.59,0.29,258.6,34.4,138.13,27.99,24.63,36.32,0.04,-272.74,-272.75,-41,566,-943,22.3,12.4,-8.1,22.5,12.4,-7.9,5.73,2.43,-22.8,27.7
2012-10-13 00:34:00,0.0,1.9077,0.0011,397.56,0.27,268.4,33.9,138.13,27.99,24.63,36.32,0.04,-272.74,-272.74,-41,566,-943,22.3,12.4,-8.1,22.5,12.4,-7.9,5.73,2.43,-22.8,27.7
2012-10-13 00:35:00,0.0,1.9073,0.0010,397.56,0.30,253.8,35.8,138.13,27.99,24.63,36.32,0.04,-272.74,-272.75,-41,566,-943,22.3,12.3,-8.2,22.5,12.4,-7.9,5.73,2.43,-22.8,27.7
2012-10-13 00:36:00,0.0,1.9078,0.0009,397.58,0.33,261.9,34.0,138.13,27.99,24.63,36.33,0.04,-272.75,-272.75,-41,566,-943,22.3,12.3,-8.2,22.5,12.3,-7.9,5.73,2.43,-22.8,27.7
2012-10-13 00:37:00,0.0,1.9080,0.0010,397.64,0.33,256.7,27.5,138.13,27.99,24.62,36.32,0.04,-272.74,-272.75,-41,566,-943,22.3,12.3,-8.2,22.5,12.3,-8.0,5.73,2.44,-22.8,27.7
2012-10-13 00:38:00,0.0,1.9081,0.0010,397.60,0.29,255.6,32.9,138.13,27.99,24.63,36.32,0.04,-272.74,-272.75,-41,566,-943,22.3,12.2,-8.3,22.5,12.3,-8.0,5.73,2.45,-22.8,27.6
2012-10-13 00:39:00,0.0,1.9092,0.0012,397.71,0.27,257.7,36.2,138.13,27.99,24.63,36.33,0.04,-272.74,-272.75,-40,566,-944,22.3,12.2,-8.3,22.6,12.2,-8.1,5.73,2.45,-22.8,27.6
2012-10-13 00:40:00,0.0,1.9117,0.0010,397.79,0.31,254.8,33.1,138.13,27.98,24.63,36.33,0.04,-272.75,-272.74,-41,566,-944,22.3,12.1,-8.4,22.6,12.2,-8.1,5.73,2.45,-22.8,27.7
2012-10-13 00:41:00,0.0,1.9112,0.0009,397.87,0.27,257.5,36.3,138.14,27.98,24.63,36.32,0.04,-272.74,-272.75,-41,566,-944,22.3,12.1,-8.4,22.6,12.2,-8.1,5.73,2.46,-22.8,27.6
2012-10-13 00:42:00,0.0,1.9095,0.0009,397.72,0.28,255.3,38.5,138.13,27.98,24.63,36.33,0.04,-272.74,-272.75,-41,566,-944,22.3,12.1,-8.4,22.5,12.2,-8.1,5.73,2.46,-22.8,27.6
2012-10-13 00:43:00,0.0,1.9092,0.0010,397.79,0.30,259.6,31.7,138.13,27.98,24.63,36.32,0.04,-272.74,-272.74,-41,566,-943,22.3,12.1,-8.4,22.5,12.2,-8.1,5.73,2.46,-22.8,27.6
2012-10-13 00:44:00,0.0,1.9090,0.0009,397.81,0.24,251.8,30.9,138.13,27.98,24.63,36.33,0.04,-272.74,-272.75,-41,566,-944,22.2,12.1,-8.4,22.6,12.1,-8.1,5.73,2.46,-22.8,27.7
2012-10-13 00:45:00,0.0,1.9088,0.0011,397.78,0.39,255.9,37.5,138.13,27.98,24.63,36.32,0.04,-272.75,-272.75,-41,566,-944,22.3,12.0,-8.5,22.6,12.1,-8.2,5.73,2.45,-22.8,27.6
2012-10-13 00:46:00,0.0,1.9077,0.0010,397.58,0.27,246.7,31.7,138.13,27.98,24.63,36.32,0.04,-272.75,-272.75,-41,566,-944,22.3,12.0,-8.5,22.5,12.0,-8.3,5.73,2.45,-22.8,27.6
2012-10-13 00:47:00,0.0,1.9075,0.0011,397.63,0.38,259.0,30.7,138.13,27.98,24.62,36.32,0.04,-272.74,-272.74,-41,566,-944,22.3,11.9,-8.6,22.5,12.0,-8.3,5.73,2.44,-22.8,27.7
2012-10-13 00:48:00,0.0,1.9074,0.0011,397.57,0.29,260.3,31.6,138.13,27.98,24.63,36.33,0.04,-272.74,-272.75,-41,566,-943,22.3,11.9,-8.6,22.6,11.9,-8.3,5.73,2.44,-22.8,27.6
2012-10-13 00:49:00,0.0,1.9094,0.0010,397.76,0.29,247.3,30.5,138.13,27.98,24.63,36.33,0.04,-272.74,-272.75,-41,566,-943,22.3,11.9,-8.7,22.6,11.9,-8.4,5.73,2.43,-22.8,27.6
2012-10-13 00:50:00,0.0,1.9091,0.0010,397.76,0.25,253.1,29.3,138.13,27.98,24.63,36.33,0.04,-272.74,-272.75,-41,566,-944,22.3,11.9,-8.6,22.5,11.9,-8.4,5.73,2.43,-22.8,27.6
2012-10-13 00:51:00,0.0,1.9083,0.0012,397.66,0.34,258.1,29.9,138.13,27.98,24.63,36.33,0.04,-272.74,-272.74,-41,566,-944,22.3,11.9,-8.6,22.6,12.0,-8.3,5.73,2.43,-22.8,27.7
2012-10-13 00:52:00,0.0,1.9072,0.0008,397.47,0.32,257.0,32.7,138.13,27.98,24.63,36.33,0.04,-272.74,-272.75,-41,566,-944,22.3,11.9,-8.6,22.6,12.0,-8.3,5.73,2.43,-22.8,27.7
2012-10-13 00:53:00,0.0,1.9063,0.0013,397.45,0.29,254.6,32.6,138.13,27.98,24.63,36.32,0.04,-272.75,-272.74,-41,566,-944,22.3,11.9,-8.6,22.6,11.9,-8.4,5.73,2.43,-22.8,27.7
2012-10-13 00:54:00,0.0,1.9051,0.0010,397.43,0.25,258.1,38.1,138.13,27.98,24.63,36.32,0.04,-272.75,-272.74,-41,566,-944,22.3,11.8,-8.7,22.6,11.9,-8.4,5.73,2.44,-22.8,27.7
2012-10-13 00:55:00,0.0,1.9050,0.0009,397.27,0.34,263.2,33.2,138.13,27.98,24.63,36.33,0.04,-272.74,-272.74,-41,567,-944,22.3,11.7,-8.8,22.6,11.8,-8.5,5.73,2.44,-22.8,27.7
2012-10-13 00:56:00,0.0,1.9051,0.0009,397.17,0.27,266.1,31.9,138.13,27.98,24.63,36.33,0.04,-272.75,-272.75,-41,566,-944,22.3,11.7,-8.8,22.6,11.8,-8.5,5.73,2.44,-22.8,27.7
2012-10-13 00:57:00,0.0,1.9033,0.0013,397.13,0.29,262.9,33.3,138.13,27.98,24.63,36.32,0.04,-272.74,-272.74,-41,567,-944,22.3,11.6,-8.9,22.6,11.7,-8.6,5.73,2.45,-22.8,27.7
2012-10-13 00:58:00,0.0,1.9044,0.0012,397.26,0.29,264.3,32.7,138.13,27.98,24.63,36.32,0.04,-272.74,-272.74,-40,566,-944,22.3,11.5,-9.0,22.6,11.6,-8.7,5.73,2.45,-22.8,27.7
2012-10-13 00:59:00,0.0,1.9045,0.0011,397.29,0.29,263.1,34.3,138.13,27.98,24.63,36.32,0.04,-272.75,-272.75,-40,567,-943,22.3,11.4,-9.1,22.6,11.5,-8.8,5.73,2.46,-22.8,27.7
2012-10-13 01:00:00,0.0,1.9054,0.0011,397.20,0.30,262.5,32.2,138.13,27.98,24.63,36.33,0.04,-272.74,-272.74,-41,566,-944,22.3,11.3,-9.2,22.6,11.4,-8.9,5.73,2.46,-22.8,27.7
2012-10-13 01:01:00,0.0,1.9071,0.0011,397.31,0.30,269.7,36.0,138.13,27.98,24.63,36.33,0.04,-272.74,-272.75,-41,566,-944,22.3,11.3,-9.2,22.6,11.4,-8.9,5.73,2.46,-22.8,27.8
2012-10-13 01:02:00,0.0,1.9078,0.0010,397.45,0.27,253.0,32.0,138.13,27.99,24.63,36.32,0.04,-272.74,-272.75,-41,567,-944,22.3,11.3,-9.2,22.6,11.4,-8.9,5.73,2.45,-22.8,27.8
2012-10-13 01:03:00,0.0,1.9069,0.0010,397.28,0.32,261.7,33.3,138.13,27.99,24.63,36.33,0.04,-272.74,-272.75,-41,566,-944,22.3,11.3,-9.2,22.6,11.4,-8.9,5.73,2.45,-22.8,27.8
2012-10-13 01:04:00,0.0,1.9052,0.0011,397.26,0.32,253.0,34.9,138.13,27.99,24.63,36.32,0.04,-272.74,-272.75,-41,566,-943,22.3,11.3,-9.3,22.6,11.3,-9.0,5.73,2.45,-22.8,27.8
2012-10-13 01:05:00,0.0,1.9076,0.0010,397.29,0.31,254.0,27.0,138.13,27.99,24.63,36.32,0.04,-272.75,-272.75,-41,566,-943,22.3,11.4,-9.2,22.6,11.4,-8.9,5.73,2.45,-22.8,27.7
2012-10-13 01:06:00,0.0,1.9074,0.0009,397.28,0.28,250.2,33.8,138.13,27.99,24.63,36.32,0.04,-272.74,-272.74,-41,566,-944,22.3,11.4,-9.2,22.6,11.4,-8.9,5.73,2.44,-22.8,27.8
2012-10-13 01:07:00,0.0,1.9086,0.0011,397.44,0.29,254.3,32.3,138.13,27.99,24.63,36.32,0.04,-272.74,-272.74,-40,566,-943,22.3,11.5,-9.1,22.6,11.5,-8.8,5.73,2.44,-22.8,27.8
2012-10-13 01:08:00,0.0,1.9077,0.0010,397.34,0.28,265.1,35.7,138.13,27.99,24.63,36.32,0.04,-272.75,-272.75,-40,567,-943,22.3,11.5,-9.1,22.6,11.5,-8.8,5.73,2.44,-22.8,27.8
2012-10-13 01:09:00,0.0,1.9074,0.0010,397.29,0.29,252.6,34.0,138.13,27.99,24.63,36.32,0.04,-272.74,-272.74,-41,566,-943,22.3,11.4,-9.1,22.6,11.5,-8.8,5.73,2.44,-22.8,27.8
2012-10-13 01:10:00,0.0,1.9066,0.0010,397.17,0.25,263.9,33.5,138.13,27.98,24.63,36.33,0.04,-272.74,-272.74,-41,567,-943,22.3,11.3,-9.2,22.6,11.4,-8.9,5.73,2.43,-22.8,27.7
2012-10-13 01:11:00,0.0,1.9083,0.0017,397.29,0.26,259.3,32.4,138.13,27.98,24.63,36.32,0.04,-272.74,-272.75,-41,566,-943,22.3,11.3,-9.2,22.6,11.3,-9.0,5.73,2.43,-22.8,27.7
2012-10-13 01:12:00,0.0,1.9119,0.0013,397.50,0.26,263.2,32.8,138.13,27.98,24.63,36.33,0.04,-272.75,-272.75,-41,566,-943,22.3,11.4,-9.1,22.6,11.4,-8.8,5.73,2.43,-22.8,27.7
2012-10-13 01:13:00,0.0,1.9073,0.0017,397.19,0.35,256.6,32.1,138.13,27.98,24.63,36.33,0.04,-272.74,-272.75,-41,566,-943,22.3,11.3,-9.2,22.6,11.4,-8.9,5.73,2.43,-22.8,27.7
2012-10-13 01:14:00,0.0,1.9049,0.0010,397.04,0.32,255.8,28.7,138.13,27.98,24.63,36.32,0.04,-272.75,-272.75,-41,567,-943,22.3,11.2,-9.4,22.6,11.2,-9.1,5.73,2.43,-22.8,27.7
2012-10-13 01:15:00,0.0,1.9081,0.0016,397.29,0.32,262.6,29.1,138.13,27.98,24.63,36.33,0.04,-272.75,-272.75,-41,566,-944,22.3,11.2,-9.3,22.6,11.3,-9.1,5.73,2.43,-22.8,27.7
2012-10-13 01:16:00,0.0,1.9099,0.0009,397.52,0.32,260.6,33.5,138.13,27.98,24.63,36.33,0.04,-272.75,-272.74,-41,567,-943,22.3,11.4,-9.2,22.6,11.4,-8.9,5.73,2.44,-22.8,27.8
2012-10-13 01:17:00,0.0,1.9058,0.0015,397.15,0.25,258.3,40.2,138.13,27.98,24.63,36.33,0.04,-272.74,-272.74,-41,567,-943,22.3,11.2,-9.3,22.6,11.3,-9.0,5.73,2.44,-22.8,27.8
2012-10-13 01:18:00,0.0,1.9047,0.0008,397.04,0.30,260.1,35.9,138.13,27.99,24.63,36.33,0.04,-272.74,-272.75,-41,567,-943,22.3,11.1,-9.5,22.6,11.1,-9.2,5.73,2.44,-22.8,27.8
2012-10-13 01:19:00,0.0,1.9043,0.0009,396.97,0.30,265.8,37.9,138.13,27.99,24.63,36.33,0.04,-272.75,-272.75,-41,567,-944,22.3,11.0,-9.6,22.6,11.0,-9.3,5.73,2.44,-22.8,27.8
2012-10-13 01:20:00,0.0,1.9061,0.0017,397.06,0.27,261.9,38.0,138.13,27.99,24.63,36.32,0.04,-272.75,-272.74,-41,567,-944,22.3,11.0,-9.6,22.6,11.0,-9.4,5.73,2.45,-22.8,27.8
2012-10-13 01:21:00,0.0,1.9088,0.0011,397.22,0.32,255.6,34.5,138.13,27.99,24.63,36.33,0.04,-272.74,-272.74,-41,567,-943,22.3,11.1,-9.4,22.6,11.2,-9.2,5.73,2.45,-22.8,27.8
2012-10-13 01:22:00,0.0,1.9094,0.0011,397.34,0.29,263.8,33.4,138.13,27.99,24.63,36.32,0.04,-272.74,-272.75,-41,567,-943,22.3,11.2,-9.4,22.6,11.2,-9.1,5.73,2.45,-22.8,27.7
2012-10-13 01:23:00,0.0,1.9112,0.0011,397.54,0.27,263.4,35.1,138.13,27.99,24.63,36.32,0.04,-272.74,-272.74,-41,567,-943,22.3,11.3,-9.2,22.6,11.4,-8.9,5.73,2.45,-22.8,27.7
2012-10-13 01:24:00,0.0,1.9123,0.0009,397.64,0.27,264.5,36.5,138.13,28.00,24.63,36.33,0.04,-272.74,-272.75,-41,567,-943,22.3,11.4,-9.2,22.6,11.4,-8.9,5.73,2.45,-22.8,27.8
2012-10-13 01:25:00,0.0,1.9105,0.0013,397.45,0.31,259.1,34.7,138.13,28.00,24.63,36.33,0.04,-272.74,-272.74,-41,567,-943,22.3,11.3,-9.2,22.7,11.3,-8.9,5.73,2.45,-22.8,27.8
2012-10-13 01:26:00,0.0,1.9095,0.0011,397.46,0.29,253.7,35.3,138.13,27.99,24.63,36.32,0.04,-272.75,-272.75,-41,567,-943,22.3,11.1,-9.5,22.7,11.1,-9.2,5.73,2.45,-22.8,27.8
2012-10-13 01:27:00,0.0,1.9104,0.0010,397.47,0.28,267.3,35.7,138.13,27.99,24.63,36.33,0.04,-272.74,-272.75,-41,567,-943,22.3,11.1,-9.5,22.7,11.1,-9.2,5.73,2.45,-22.8,27.7
2012-10-13 01:28:00,0.0,1.9094,0.0011,397.44,0.29,250.4,34.4,138.13,27.99,24.63,36.32,0.04,-272.74,-272.74,-41,567,-943,22.3,11.1,-9.5,22.7,11.1,-9.2,5.73,2.45,-22.8,27.7
2012-10-13 01:29:00,0.0,1.9095,0.0008,397.37,0.29,262.3,35.2,138.13,28.00,24.63,36.34,0.04,-272.74,-272.75,-41,567,-943,22.3,11.0,-9.5,22.7,11.1,-9.2,5.73,2.45,-22.8,27.8
2012-10-13 01:30:00,0.0,1.9108,0.0011,397.46,0.29,252.2,33.8,138.13,28.00,24.63,36.33,0.04,-272.74,-272.74,-41,567,-943,22.3,11.1,-9.5,22.7,11.1,-9.2,5.73,2.45,-22.8,27.8
2012-10-13 01:31:00,0.0,1.9125,0.0009,397.54,0.31,260.1,31.4,138.13,27.99,24.63,36.32,0.04,-272.74,-272.74,-41,567,-943,22.3,11.1,-9.4,22.7,11.2,-9.1,5.73,2.45,-22.8,27.8
2012-10-13 01:32:00,0.0,1.9132,0.0009,397.59,0.29,258.7,30.6,138.13,28.00,24.63,36.33,0.04,-272.75,-272.74,-41,567,-943,22.3,11.1,-9.4,22.7,11.2,-9.1,5.73,2.44,-22.8,27.8
2012-10-13 01:33:00,0.0,1.9119,0.0011,397.48,0.28,258.8,37.1,138.13,28.00,24.63,36.34,0.04,-272.75,-272.74,-41,566,-943,22.3,11.1,-9.5,22.7,11.1,-9.2,5.73,2.44,-22.8,27.8
2012-10-13 01:34:00,0.0,1.9122,0.0008,397.55,0.34,255.1,36.0,138.13,28.00,24.63,36.33,0.04,-272.74,-272.74,-41,567,-943,22.3,11.0,-9.5,22.7,11.1,-9.2,5.73,2.43,-22.8,27.8
2012-10-13 01:35:00,0.0,1.9120,0.0010,397.61,0.26,270.0,31.3,138.13,28.00,24.63,36.32,0.04,-272.75,-272.75,-41,567,-943,22.3,11.0,-9.5,22.7,11.1,-9.2,5.73,2.44,-22.8,27.8
2012-10-13 01:36:00,0.0,1.9121,0.0012,397.54,0.28,262.4,33.4,138.13,28.00,24.63,36.33,0.04,-272.74,-272.75,-41,567,-943,22.3,11.0,-9.5,22.7,11.1,-9.2,5.73,2.43,-22.8,27.8
2012-10-13 01:37:00,0.0,1.9115,0.0010,397.60,0.34,256.8,39.4,138.13,28.00,24.63,36.33,0.04,-272.74,-272.75,-41,566,-944,22.3,10.9,-9.6,22.7,11.0,-9.3,5.73,2.43,-22.8,27.8
2012-10-13 01:38:00,0.0,1.9146,0.0016,397.86,0.27,267.0,36.8,138.13,28.00,24.63,36.33,0.04,-272.75,-272.74,-41,567,-943,22.3,11.0,-9.5,22.7,11.1,-9.2,5.73,2.43,-22.8,27.8
2012-10-13 01:39:00,0.0,1.9156,0.0009,397.92,0.27,251.3,33.1,138.13,28.00,24.63,36.32,0.04,-272.74,-272.74,-41,567,-943,22.3,11.1,-9.4,22.7,11.2,-9.1,5.73,2.43,-22.8,27.8
2012-10-13 01:40:00,0.0,1.9146,0.0012,397.76,0.33,256.2,37.6,138.13,28.00,24.63,36.33,0.04,-272.74,-272.74,-41,567,-943,22.4,11.2,-9.3,22.7,11.2,-9.0,5.73,2.44,-22.8,27.7
2012-10-13 01:41:00,0.0,1.9125,0.0015,397.58,0.30,273.2,35.6,138.13,28.00,24.63,36.33,0.04,-272.74,-272.74,-41,567,-944,22.3,11.2,-9.4,22.7,11.2,-9.0,5.73,2.43,-22.8,27.7
2012-10-13 01:42:00,0.0,1.9151,0.0010,397.76,0.31,263.2,33.7,138.13,28.01,24.63,36.33,0.04,-272.75,-272.75,-41,567,-944,22.4,11.2,-9.3,22.7,11.2,-9.0,5.73,2.44,-22.8,27.8
2012-10-13 01:43:00,0.0,1.9155,0.0012,397.79,0.29,264.7,37.8,138.13,28.01,24.63,36.32,0.04,-272.75,-272.75,-41,567,-944,22.4,11.3,-9.2,22.7,11.3,-8.9,5.73,2.43,-22.8,27.8
2012-10-13 01:44:00,0.0,1.9131,0.0014,397.68,0.35,255.6,37.6,138.13,28.01,24.62,36.32,0.04,-272.75,-272.74,-41,567,-943,22.4,11.3,-9.2,22.7,11.4,-8.9,5.73,2.44,-22.8,27.8
2012-10-13 01:45:00,0.0,1.9136,0.0009,397.78,0.30,261.4,34.7,138.13,28.01,24.63,36.33,0.04,-272.74,-272.74,-41,567,-944,22.4,11.4,-9.1,22.7,11.5,-8.8,5.73,2.44,-22.8,27.7
2012-10-13 01:46:00,0.0,1.9110,0.0019,397.58,0.29,254.0,38.6,138.13,28.01,24.63,36.32,0.04,-272.74,-272.75,-41,567,-944,22.4,11.4,-9.1,22.7,11.5,-8.8,5.73,2.44,-22.8,27.8
2012-10-13 01:47:00,0.0,1.9107,0.0011,397.56,0.29,262.6,32.2,138.13,28.01,24.63,36.33,0.04,-272.74,-272.74,-41,567,-944,22.4,11.3,-9.1,22.7,11.4,-8.9,5.73,2.44,-22.8,27.8
2012-10-13 01:48:00,0.0,1.9115,0.0012,397.69,0.28,260.1,32.3,138.13,28.01,24.63,36.33,0.04,-272.74,-272.74,-41,567,-944,22.4,11.4,-9.1,22.7,11.4,-8.8,5.73,2.45,-22.8,27.8
2012-10-13 01:49:00,0.0,1.9130,0.0009,397.92,0.32,256.1,30.5,138.13,28.01,24.63,36.32,0.04,-272.74,-272.74,-41,567,-943,22.4,11.5,-9.0,22.7,11.5,-8.7,5.73,2.46,-22.8,27.7
2012-10-13 01:50:00,0.0,1.9139,0.0011,397.93,0.29,259.2,30.6,138.13,28.01,24.63,36.33,0.04,-272.74,-272.74,-41,567,-944,22.4,11.6,-8.9,22.7,11.6,-8.6,5.73,2.45,-22.8,27.7
2012-10-13 01:51:00,0.0,1.9152,0.0013,397.88,0.29,245.3,36.4,138.13,28.02,24.63,36.34,0.04,-272.74,-272.74,-41,567,-944,22.4,11.5,-8.9,22.7,11.6,-8.6,5.73,2.46,-22.8,27.8
2012-10-13 01:52:00,0.0,1.9182,0.0015,398.09,0.33,264.5,37.2,138.13,28.02,24.63,36.33,0.04,-272.75,-272.75,-41,567,-944,22.4,11.6,-8.9,22.7,11.6,-8.6,5.73,2.46,-22.8,27.8
2012-10-13 01:53:00,0.0,1.9187,0.0013,398.10,0.34,255.3,36.7,138.13,28.02,24.63,36.32,0.04,-272.75,-272.75,-41,567,-943,22.4,11.6,-8.8,22.7,11.7,-8.6,5.73,2.45,-22.8,27.8
2012-10-13 01:54:00,0.0,1.9188,0.0010,398.28,0.29,261.7,35.6,138.13,28.02,24.63,36.32,0.04,-272.74,-272.74,-41,567,-943,22.4,11.6,-8.8,22.7,11.7,-8.6,5.73,2.45,-22.8,27.8
2012-10-13 01:55:00,0.0,1.9194,0.0011,398.23,0.27,252.2,38.1,138.13,28.02,24.63,36.33,0.04,-272.75,-272.75,-41,567,-943,22.4,11.7,-8.8,22.7,11.7,-8.5,5.73,2.45,-22.8,27.8
2012-10-13 01:56:00,0.0,1.9191,0.0010,398.24,0.33,250.1,36.7,138.13,28.02,24.63,36.33,0.04,-272.75,-272.75,-41,567,-944,22.4,11.7,-8.7,22.7,11.8,-8.4,5.73,2.44,-22.8,27.8
2012-10-13 01:57:00,0.0,1.9194,0.0012,398.28,0.26,259.5,35.3,138.13,28.02,24.63,36.33,0.04,-272.75,-272.75,-41,567,-944,22.4,11.8,-8.6,22.7,11.9,-8.3,5.73,2.45,-22.8,27.7
2012-10-13 01:58:00,0.0,1.9180,0.0008,398.32,0.32,242.6,36.0,138.13,28.02,24.63,36.33,0.04,-272.75,-272.74,-41,567,-944,22.4,11.9,-8.5,22.7,12.0,-8.2,5.73,2.44,-22.8,27.8
2012-10-13 01:59:00,0.0,1.9169,0.0015,398.30,0.33,260.0,31.8,138.13,28.02,24.63,36.33,0.04,-272.74,-272.75,-41,567,-943,22.4,12.0,-8.4,22.7,12.0,-8.1,5.73,2.44,-22.8,27.8
2012-10-13 02:00:00,0.0,1.9150,0.0010,398.17,0.31,256.8,37.2,138.13,28.02,24.63,36.33,0.04,-272.74,-272.75,-41,567,-944,22.4,11.8,-8.6,22.7,11.9,-8.3,5.73,2.44,-22.8,27.8
2012-10-13 02:01:00,0.0,1.9139,0.0012,397.84,0.25,250.8,31.2,138.13,28.02,24.63,36.34,0.04,-272.74,-272.74,-41,567,-944,22.4,11.7,-8.7,22.7,11.8,-8.4,5.73,2.43,-22.8,27.8
2012-10-13 02:02:00,0.0,1.9123,0.0011,397.95,0.38,251.9,31.9,138.13,28.02,24.63,36.33,0.04,-272.74,-272.74,-41,567,-944,22.4,11.6,-8.9,22.7,11.6,-8.6,5.73,2.43,-22.8,27.8
"startDT [UTC]","vpos","CH4 [ppm]","stdev(CH4) [ppm]","CO2 [ppm]","stdev(CO2) [ppm]","H2O [ppm]","stdev(H2O)","p_LGR [torr]","T_LGR [C]","mt1_LGR [us]","mt2_LGR [us]","T_ECpre [C]","T_EC1 [C]","T_EC2 [C]","p_inlet [hPa]","p_in [hPa]","p_out [hPa]","T_inlet [C]","RH_inlet [%]","dwpt_inlet [C]","T_vent [C]","RH_vent [%]","dwpt_vent [C]","flow_vent [l min-1]","flow_inlet [l min-1]","dwpt_sample [C]","T_room [C]"
2012-10-13 02:06:00,0.0,1.9145,0.0011,398.11,0.30,243.6,30.5,138.13,28.02,24.63,36.32,0.04,-272.75,-272.75,-41,567,-943,22.4,11.8,-8.7,22.7,11.8,-8.3,5.73,2.43,-22.9,27.8
2012-10-13 02:07:00,0.0,1.9145,0.0013,398.01,0.30,252.7,32.8,138.13,28.02,24.63,36.33,0.04,-272.74,-272.75,-41,567,-943,22.4,11.8,-8.7,22.7,11.8,-8.4,5.73,2.43,-22.9,27.8
2012-10-13 02:08:00,0.0,1.9141,0.0012,397.86,0.23,240.1,33.0,138.13,28.02,24.63,36.33,0.04,-272.74,-272.75,-41,567,-944,22.4,11.8,-8.7,22.7,11.8,-8.4,5.73,2.44,-22.9,27.8
2012-10-13 02:09:00,0.0,1.9144,0.0011,397.95,0.32,239.3,36.4,138.13,28.02,24.63,36.33,0.04,-272.74,-272.75,-41,567,-944,22.3,11.8,-8.7,22.7,11.8,-8.4,5.73,2.44,-22.9,27.8
2012-10-13 02:10:00,0.0,1.9156,0.0010,397.92,0.26,247.6,35.6,138.13,28.02,24.63,36.33,0.04,-272.74,-272.75,-41,567,-943,22.3,11.8,-8.7,22.7,11.8,-8.4,5.73,2.45,-22.9,27.8
2012-10-13 02:11:00,0.0,1.9147,0.0011,397.98,0.30,241.9,30.5,138.13,28.01,24.63,36.33,0.04,-272.74,-272.74,-41,567,-944,22.3,11.8,-8.6,22.7,11.9,-8.3,5.73,2.46,-22.9,27.8
2012-10-13 02:12:00,0.0,1.9130,0.0016,397.81,0.29,248.6,31.2,138.13,28.01,24.63,36.33,0.04,-272.74,-272.74,-41,567,-943,22.3,11.9,-8.6,22.6,11.9,-8.3,5.73,2.46,-23.0,27.8
2012-10-13 02:13:00,0.0,1.9095,0.0010,397.59,0.30,242.2,38.6,138.13,28.01,24.63,36.32,0.04,-272.75,-272.74,-41,567,-943,22.3,11.7,-8.8,22.6,11.8,-8.5,5.73,2.46,-23.0,27.7
2012-10-13 02:14:00,0.0,1.9094,0.0010,397.54,0.33,246.7,38.2,138.13,28.01,24.63,36.33,0.04,-272.74,-272.74,-41,567,-944,22.3,11.7,-8.8,22.6,11.7,-8.6,5.73,2.46,-23.0,27.7
2012-10-13 02:15:00,0.0,1.9116,0.0008,397.75,0.31,251.5,30.8,138.13,28.01,24.63,36.33,0.04,-272.74,-272.74,-41,567,-943,22.3,11.7,-8.8,22.6,11.8,-8.5,5.73,2.45,-23.0,27.7
2012-10-13 02:16:00,0.0,1.9114,0.0009,397.77,0.31,241.8,31.6,138.13,28.01,24.63,36.33,0.04,-272.74,-272.75,-41,567,-943,22.3,11.8,-8.7,22.6,11.8,-8.4,5.73,2.45,-23.0,27.8
2012-10-13 02:17:00,0.0,1.9119,0.0008,397.85,0.30,243.7,34.0,138.13,28.02,24.63,36.32,0.04,-272.75,-272.74,-41,567,-944,22.3,11.8,-8.7,22.6,11.8,-8.4,5.73,2.44,-23.0,27.7